TimePDT,TemperatureF,Dew PointF,Humidity,Sea Level PressureIn,VisibilityMPH,Wind Direction,Wind SpeedMPH,Gust SpeedMPH,PrecipitationIn,Events,Conditions,WindDirDegrees,DateUTC
12:53 AM,73.0,51.1,46,29.88,8.0,SSW,3.5,-,N/A,,Clear,210,2013-08-29 07:53:00
1:53 AM,72.0,52.0,49,29.89,9.0,Calm,Calm,-,N/A,,Clear,0,2013-08-29 08:53:00
2:53 AM,69.1,54.0,58,29.88,7.0,NNW,3.5,-,N/A,,Clear,340,2013-08-29 09:53:00
3:53 AM,70.0,53.1,55,29.88,8.0,Calm,Calm,-,N/A,,Clear,0,2013-08-29 10:53:00
4:53 AM,69.1,55.0,61,29.90,7.0,ENE,3.5,-,N/A,,Clear,60,2013-08-29 11:53:00
5:53 AM,68.0,54.0,61,29.89,3.0,Calm,Calm,-,N/A,,Haze,0,2013-08-29 12:53:00
6:29 AM,69.8,53.6,56,29.93,1.8,Calm,Calm,-,N/A,,Haze,0,2013-08-29 13:29:00
6:41 AM,69.8,53.6,56,29.93,10.0,Calm,Calm,-,N/A,,Clear,0,2013-08-29 13:41:00
6:53 AM,70.0,55.0,59,29.92,10.0,Calm,Calm,-,N/A,,Clear,0,2013-08-29 13:53:00
7:53 AM,79.0,54.0,42,29.92,10.0,Calm,Calm,-,N/A,,Scattered Clouds,0,2013-08-29 14:53:00
8:53 AM,82.9,52.0,34,29.92,10.0,Calm,Calm,-,N/A,,Partly Cloudy,0,2013-08-29 15:53:00
9:53 AM,90.0,59.0,35,29.93,10.0,Calm,Calm,-,N/A,,Scattered Clouds,0,2013-08-29 16:53:00
10:53 AM,95.0,61.0,32,29.92,10.0,Calm,Calm,-,N/A,,Scattered Clouds,0,2013-08-29 17:53:00
11:53 AM,99.0,59.0,26,29.90,10.0,Calm,Calm,-,N/A,,Scattered Clouds,0,2013-08-29 18:53:00
12:53 PM,100.9,55.9,22,29.88,10.0,Calm,Calm,-,N/A,,Scattered Clouds,0,2013-08-29 19:53:00
1:53 PM,104.0,59.0,23,29.87,10.0,SW,13.8,19.6,N/A,,Mostly Cloudy,230,2013-08-29 20:53:00
2:06 PM,102.2,57.2,22,29.89,10.0,SW,11.5,-,N/A,,Mostly Cloudy,220,2013-08-29 21:06:00
2:53 PM,102.9,57.9,23,29.85,10.0,SW,15.0,23.0,N/A,,Mostly Cloudy,230,2013-08-29 21:53:00
3:53 PM,100.9,54.0,21,29.86,10.0,SW,15.0,-,N/A,,Mostly Cloudy,230,2013-08-29 22:53:00
4:53 PM,98.1,53.1,22,29.86,10.0,SW,11.5,-,N/A,,Mostly Cloudy,230,2013-08-29 23:53:00
5:53 PM,97.0,51.1,21,29.87,10.0,West,9.2,-,N/A,,Mostly Cloudy,260,2013-08-30 00:53:00
6:53 PM,91.9,54.0,27,29.87,10.0,West,11.5,-,N/A,,Mostly Cloudy,260,2013-08-30 01:53:00
7:53 PM,88.0,50.0,27,29.90,10.0,West,10.4,-,N/A,,Mostly Cloudy,270,2013-08-30 02:53:00
8:53 PM,86.0,48.9,28,29.91,10.0,West,6.9,-,N/A,,Clear,280,2013-08-30 03:53:00
9:53 PM,84.0,51.1,32,29.93,10.0,Calm,Calm,-,N/A,,Clear,0,2013-08-30 04:53:00
10:53 PM,81.0,55.0,41,29.94,9.0,ENE,3.5,-,N/A,,Clear,60,2013-08-30 05:53:00
11:53 PM,80.1,55.0,42,29.94,10.0,Calm,Calm,-,N/A,,Clear,0,2013-08-30 06:53:00